| time (UTC) | temp F | wind direction | speed MPH | gust MPH | rain 1hr in | rain 24hr in | rain mn in | humidity % | barometer mb |
| 20260503184550 | 73 | 284 | 2.0 | 5.0 | 0.00 | 0.00 | 0.00 | 57 | 1014.4 |
| 20260503183047 | 73 | 342 | 1.0 | 5.0 | 0.00 | 0.00 | 0.00 | 56 | 1014.7 |
| 20260503181532 | 72 | 233 | 0.0 | 5.0 | 0.00 | 0.00 | 0.00 | 58 | 1014.8 |
| 20260503180034 | 72 | 103 | 1.0 | 3.0 | 0.00 | 0.00 | 0.00 | 57 | 1014.9 |
| 20260503174527 | 70 | 282 | 1.0 | 4.0 | 0.00 | 0.00 | 0.00 | 57 | 1015.1 |
| 20260503173032 | 71 | 144 | 0.0 | 3.0 | 0.00 | 0.00 | 0.00 | 58 | 1015.3 |
| 20260503171525 | 69 | 269 | 1.0 | 4.0 | 0.00 | 0.00 | 0.00 | 60 | 1015.4 |
| 20260503150107 | 58 | 277 | 0.0 | 2.0 | 0.00 | 0.00 | 0.00 | 87 | 1016.1 |
| 20260503081518 | 50 | 252 | 0.0 | 1.0 | 0.00 | 0.00 | 0.00 | 92 | 1015.4 |
| 20260503071513 | 52 | 117 | 0.0 | 0.0 | 0.00 | 0.00 | 0.00 | 89 | 1015.3 |
| 20260503054504 | 54 | 117 | 0.0 | 0.0 | 0.00 | 0.00 | 0.00 | 85 | 1014.8 |
| 20260503053004 | 55 | 117 | 0.0 | 1.0 | 0.00 | 0.00 | 0.00 | 85 | 1014.8 |
| 20260503051504 | 56 | 118 | 0.0 | 1.0 | 0.00 | 0.00 | 0.00 | 83 | 1014.8 |
| 20260503050004 | 57 | 198 | 0.0 | 2.0 | 0.00 | 0.00 | 0.00 | 81 | 1014.8 |
| 20260503044503 | 58 | 198 | 0.0 | 0.0 | 0.00 | 0.00 | 0.00 | 80 | 1014.9 |
| 20260503043002 | 59 | 198 | 0.0 | 0.0 | 0.00 | 0.00 | 0.00 | 79 | 1014.7 |
| 20260503041502 | 60 | 198 | 0.0 | 0.0 | 0.00 | 0.00 | 0.00 | 79 | 1014.7 |
| 20260503040001 | 62 | 198 | 0.0 | 1.0 | 0.00 | 0.00 | 0.00 | 75 | 1014.5 |
| 20260503034618 | 63 | 198 | 0.0 | 1.0 | 0.00 | 0.00 | 0.00 | 73 | 1014.4 |
| 20260503033102 | 65 | 198 | 0.0 | 1.0 | 0.00 | 0.00 | 0.00 | 71 | 1014.3 |
| 20260503031600 | 68 | 198 | 1.0 | 1.0 | 0.00 | 0.00 | 0.00 | 67 | 1014.2 |
| 20260503030059 | 72 | 206 | 0.0 | 1.0 | 0.00 | 0.00 | 0.00 | 61 | 1014.0 |
| 20260503024605 | 73 | 212 | 0.0 | 1.0 | 0.00 | 0.00 | 0.00 | 54 | 1013.9 |
| 20260503023100 | 74 | 267 | 0.0 | 2.0 | 0.00 | 0.00 | 0.00 | 54 | 1014.0 |
| 20260503021556 | 75 | 214 | 0.0 | 3.0 | 0.00 | 0.00 | 0.00 | 52 | 1014.1 |
| 20260503020055 | 75 | 259 | 0.0 | 2.0 | 0.00 | 0.00 | 0.00 | 54 | 1014.2 |
| 20260503014610 | 75 | 202 | 0.0 | 3.0 | 0.00 | 0.00 | 0.00 | 53 | 1014.3 |
| 20260503013055 | 76 | 278 | 1.0 | 2.0 | 0.00 | 0.00 | 0.00 | 52 | 1014.4 |
| 20260503011551 | 75 | 271 | 1.0 | 4.0 | 0.00 | 0.00 | 0.00 | 53 | 1014.4 |
| 20260503010049 | 75 | 281 | 3.0 | 8.0 | 0.00 | 0.00 | 0.00 | 51 | 1014.5 |
| 20260503004548 | 75 | 246 | 2.0 | 8.0 | 0.00 | 0.00 | 0.00 | 52 | 1014.5 |
| 20260503003047 | 75 | 278 | 4.0 | 8.0 | 0.00 | 0.00 | 0.00 | 53 | 1014.6 |
| 20260503001545 | 75 | 287 | 3.0 | 7.0 | 0.00 | 0.00 | 0.00 | 56 | 1014.7 |
| 20260503000044 | 74 | 252 | 2.0 | 5.0 | 0.00 | 0.00 | 0.00 | 59 | 1014.7 |
| 20260502234543 | 74 | 294 | 1.0 | 7.0 | 0.00 | 0.00 | 0.00 | 58 | 1014.9 |
| 20260502233044 | 74 | 274 | 4.0 | 9.0 | 0.00 | 0.00 | 0.00 | 55 | 1015.1 |
| 20260502231539 | 74 | 259 | 3.0 | 6.0 | 0.00 | 0.00 | 0.00 | 55 | 1015.2 |
| 20260502230036 | 73 | 294 | 1.0 | 10.0 | 0.00 | 0.00 | 0.00 | 58 | 1015.4 |
| 20260502224533 | 73 | 248 | 2.0 | 10.0 | 0.00 | 0.00 | 0.00 | 56 | 1015.6 |
| 20260502223033 | 73 | 239 | 4.0 | 9.0 | 0.00 | 0.00 | 0.00 | 59 | 1016.0 |
| 20260502221528 | 72 | 233 | 4.0 | 8.0 | 0.00 | 0.00 | 0.00 | 59 | 1016.1 |
| 20260502220026 | 72 | 240 | 4.0 | 9.0 | 0.00 | 0.00 | 0.00 | 60 | 1016.2 |
| 20260502214529 | 71 | 286 | 4.0 | 9.0 | 0.00 | 0.00 | 0.00 | 62 | 1016.4 |
| 20260502213023 | 71 | 269 | 3.0 | 8.0 | 0.00 | 0.00 | 0.00 | 63 | 1016.6 |
| 20260502211530 | 71 | 276 | 2.0 | 10.0 | 0.00 | 0.00 | 0.00 | 64 | 1016.7 |
| 20260502210022 | 70 | 288 | 1.0 | 9.0 | 0.00 | 0.00 | 0.00 | 64 | 1016.9 |
| 20260502204522 | 69 | 236 | 5.0 | 10.0 | 0.00 | 0.00 | 0.00 | 64 | 1017.0 |
| 20260502203021 | 69 | 268 | 5.0 | 10.0 | 0.00 | 0.00 | 0.00 | 63 | 1017.1 |
| 20260502201520 | 69 | 255 | 4.0 | 11.0 | 0.00 | 0.00 | 0.00 | 65 | 1017.3 |
| 20260502200020 | 70 | 198 | 4.0 | 10.0 | 0.00 | 0.00 | 0.00 | 65 | 1017.4 |
| 20260502194519 | 71 | 223 | 2.0 | 10.0 | 0.00 | 0.00 | 0.00 | 64 | 1017.4 |
| 20260502193019 | 71 | 265 | 2.0 | 10.0 | 0.00 | 0.00 | 0.00 | 66 | 1017.4 |
| 20260502191523 | 72 | 259 | 3.0 | 8.0 | 0.00 | 0.00 | 0.00 | 61 | 1017.4 |
| 20260502190027 | 71 | 203 | 1.0 | 7.0 | 0.00 | 0.00 | 0.00 | 60 | 1017.5 |